星链-1818 (STARLINK-1818 )

导读 | 豆包AI

STARLINK-1818是美国太空探索技术公司SpaceX星链卫星互联网项目的卫星,于2020年10月18日发射入轨,属于星链低轨通信卫星组网的组成部分,旨在为全球提供高速互联网服务。星链大规模低轨卫星部署引发了天文观测与空间碎片等方面讨论,该卫星已在轨运行超五年。

Basic Information
目录编号:
46716
目录名称:
STARLINK-1818
国际标识:
2020-073AY
轨道中心:
EARTH
卫星名称:
星链-1818
卫星全名:
星链-1818 (STARLINK-1818 )
卫星状态:
已陨落 最后检测时间 2025-06-24
发射日期:
2020-10-18 UTC
国别 :
美国 (US)
星等 :
--
Orbit Information
数据来源 国际轨道数据
星历时间: 2025-06-24T14:41:59+0800
轨道信息已过期263天
半长轴: 6524.824km
偏心率: 0.0011012
轨道倾角: 53.020°
近地点辐角 283.485°
升交点赤经 264.030°
平近点角 182.427°
近地点: 139.503km
远地点: 153.875km
周期: 87.420分钟
每日圈数: 16.472126
Detailed Information
固有亮度:
5
最大亮度:
2.5
卫星平台:
Starlink V1.0
覆盖范围:
全球
运营商:
太空探索技术公司
运营商所在国:
美国
制造商(研发单位):
太空探索技术公司
制造商所在国:
美国
使用方式:
暂无
Satellite Introduction
星链(Starlink)计划是由太空探索技术公司(SpaceX)提出的一个巨型低轨卫星互联网星座项目,计划在2019年至2024年间在太空搭建由约1.2万颗卫星组成的“星链”网络,其中1584颗将部署在地球上空550千米处的近地轨道,并从2020年开始工作。该卫星仍在工作。